Weather History for George, South Africa

Change the Weather History Date:

Thursday, September 5, 2013

  Actual Average Record
Temperature  
Mean Temperature 55 °F -  
Max Temperature 66 °F 64 °F 82 °F (1996)
Min Temperature 44 °F 48 °F 39 °F (2012)
Degree Days  
Heating Degree Days 10    
Growing Degree Days 5 (Base 50)    
Moisture  
Dew Point 46 °F    
Average Humidity 70    
Maximum Humidity 94    
Minimum Humidity 34    
Precipitation  
Precipitation 0.00 in - - ()
Sea Level Pressure  
Sea Level Pressure 30.26 in    
Wind  
Wind Speed 5 mph ()    
Max Wind Speed 13 mph    
Max Gust Speed -    
Visibility 9.9 miles    
Events      
Averages and records for this station are not official NWS values.
T = Trace of Precipitation, MM = Missing Value Source: Averaged Metar Reports

Daily Weather History Graph

Daily Weather History Graph

Search for Another Location

Airport:

Trip Planner

Search our weather history database for the weather conditions in past years. The results will help you decide how hot, cold, wet, or windy it might be!

Date:

Astronomy

Sep. 05, 2013 Rise Set
Actual Time 6:43 AM SAST 6:15 PM SAST
Civil Twilight 6:18 AM SAST 6:40 PM SAST
Nautical Twilight 5:49 AM SAST 7:09 PM SAST
Astronomical Twilight 5:20 AM SAST 7:38 PM SAST
Moon 6:20 AM SAST (9/5) 6:25 PM SAST (9/5)
Length of Visible Light 12h 21m
Length of Day
11h 31m
Waning Crescent, 0% of the Moon is Illuminated
Sep 5
Waning Crescent
Sep 5
New
Sep 12
First Quarter
Sep 19
Full
Sep 27
Last Quarter

Hourly Weather History & Observations

Time (SAST) Temp. Windchill Dew Point Humidity Pressure Visibility Wind Dir Wind Speed Gust Speed Precip Events Conditions
12:00 AM 51.8 °F - 41.0 °F 67% 30.36 in - NW 4.6 mph - N/A   Clear
1:00 AM 48.2 °F - 41.0 °F 76% 30.36 in - NNW 5.8 mph - N/A   Clear
2:00 AM 48 °F - 41 °F 68% 30.38 in 12 mi NNW 5.8 mph - -  
2:00 AM 48.2 °F - 41.0 °F 76% 30.36 in - NNW 6.9 mph - N/A   Clear
3:00 AM 48.2 °F - 41.0 °F 76% 30.33 in - NNW 4.6 mph - N/A   Clear
5:00 AM 48 °F - 41 °F 68% 30.31 in 12 mi NNW 3.5 mph - -   Scattered Clouds
5:00 AM 48.2 °F - 41.0 °F 76% 30.30 in 6.2 mi NNW 3.5 mph - N/A   Partly Cloudy
6:00 AM 46.4 °F - 39.2 °F 76% 30.30 in 6.2 mi North 2.3 mph - N/A   Partly Cloudy
7:00 AM 46.4 °F 44.3 °F 39.2 °F 76% 30.30 in - NNW 4.6 mph - N/A   Clear
8:00 AM 50 °F - 43 °F 71% 30.31 in 12 mi North 3.5 mph - -  
8:00 AM 50.0 °F - 44.6 °F 82% 30.30 in - Variable 2.3 mph - N/A   Clear
9:00 AM 59.0 °F - 44.6 °F 59% 30.30 in - Variable 2.3 mph - N/A   Clear
10:00 AM 60.8 °F - 44.6 °F 55% 30.27 in - NW 10.4 mph - N/A   Clear
11:00 AM 65 °F - 44 °F 34% 30.28 in 12 mi West 5.8 mph - -  
11:00 AM 64.4 °F - 44.6 °F 49% 30.27 in - West 5.8 mph - N/A   Clear
12:00 PM 64.4 °F - 46.4 °F 52% 30.27 in - SSW 10.4 mph - N/A   Clear
1:00 PM 64.4 °F - 48.2 °F 56% 30.24 in - SSW 6.9 mph - N/A   Clear
2:00 PM 62 °F - 50 °F 56% 30.24 in 12 mi SSW 12.7 mph - -  
2:00 PM 62.6 °F - 50.0 °F 63% 30.21 in - SSW 12.7 mph - N/A   Clear
3:00 PM 62.6 °F - 50.0 °F 63% 30.18 in - SSW 10.4 mph - N/A   Clear
4:00 PM 60.8 °F - 51.8 °F 72% 30.18 in - SSW 11.5 mph - N/A   Clear
5:00 PM 60 °F - 51 °F 64% 30.20 in 12 mi SW 10.4 mph - -   Clear
5:00 PM 60.8 °F - 51.8 °F 72% 30.18 in - SW 10.4 mph - N/A   Clear
6:00 PM 57.2 °F - 50.0 °F 77% 30.21 in - SW 6.9 mph - N/A   Clear
7:00 PM 55.4 °F - 50.0 °F 82% 30.21 in 6.2 mi SW 5.8 mph - N/A   Partly Cloudy
8:00 PM 52 °F - 49 °F 86% 30.22 in 12 mi NNE 5.8 mph - -   Clear
8:00 PM 51.8 °F - 50.0 °F 94% 30.21 in - NNE 5.8 mph - N/A   Clear
9:00 PM 51.8 °F - 48.2 °F 88% 30.21 in 6.2 mi North 3.5 mph - N/A   Partly Cloudy
10:00 PM 51.8 °F - 48.2 °F 88% 30.21 in - Variable 2.3 mph - N/A   Clear
11:00 PM 50.0 °F - 46.4 °F 87% 30.21 in - Variable 1.2 mph - N/A   Clear